軌道要素
Epoch 2004 Nov. 11.0 TT = JDT 2453320.5
T 2004 Nov. 3.16910 TT MPC
q 2.1382485 (2000.0) P Q
n 0.11672783 Peri. 21.67844 -0.99481838 +0.06298445
a 4.1465455 Node 161.39180 -0.07568255 -0.98293531
e 0.4843302 Incl. 14.48391 +0.06788624 -0.17283269
P 8.44
From 63 observations 1996 Feb. 17-2013 May 1, mean residual 0".5.
|